Shoreham, United Kingdom

11:44 PM GMT on February 08, 2016 (GMT +0000)
Shoreham

Weather History for EGKA - May, 2013

Change the Weather History Date:

Wednesday, May 15, 2013

  Actual Average Record
Temperature  
Mean Temperature 50 °F -  
Max Temperature 54 °F 60 °F 75 °F (1998)
Min Temperature 46 °F 53 °F 40 °F (2012)
Degree Days  
Heating Degree Days 15    
Moisture  
Dew Point 43 °F    
Average Humidity 73    
Maximum Humidity 83    
Minimum Humidity 63    
Precipitation  
Precipitation 0.02 in - - ()
Sea Level Pressure  
Sea Level Pressure 29.43 in    
Wind  
Wind Speed 21 mph ()    
Max Wind Speed 40 mph    
Max Gust Speed 36 mph    
Visibility 6.2 miles    
Events Rain , Hail    
Averages and records for this station are not official NWS values.
T = Trace of Precipitation, MM = Missing Value Source: Averaged Metar Reports

Daily Weather History Graph

Daily Weather History Graph

Search for Another Location

Airport or City:

Trip Planner

Search our weather history database for the weather conditions in past years. The results will help you decide how hot, cold, wet, or windy it might be!

Date:

Astronomy

May. 15, 2013 Rise Set
Actual Time 5:11 AM BST 8:43 PM BST
Civil Twilight 4:31 AM BST 9:24 PM BST
Nautical Twilight 3:36 AM BST 10:19 PM BST
Astronomical Twilight 2:19 AM BST 11:39 PM BST
Moon 9:38 AM BST (5/15) 12:17 AM BST (5/15)
Length of Visible Light 16h 53m
Length of Day
15h 32m
Waxing Crescent, 25% of the Moon is Illuminated
May 15
Waxing Crescent
May 18
First Quarter
May 25
Full
May 31
Last Quarter
Jun 8
New

Hourly Weather History & Observations

Time (BST) Temp. Dew Point Humidity Pressure Visibility Wind Dir Wind Speed Gust Speed Precip Events Conditions
12:50 AM 47 °F 41 °F 74% 29.27 in - SW 40.3 mph - -  
3:50 AM 49 °F 42 °F 67% 29.26 in - SW 33.4 mph - -  
6:50 AM 48 °F 41 °F 69% 29.30 in - SW 28.8 mph - -  
8:20 AM 48.2 °F 41.0 °F 76% 29.33 in 6.2 mi WSW 24.2 mph 35.7 mph N/A   Mostly Cloudy
8:50 AM 48.2 °F 39.2 °F 71% 29.33 in 6.2 mi WSW 23.0 mph - N/A   Mostly Cloudy
9:20 AM 48.2 °F 41.0 °F 76% 29.36 in 6.2 mi WSW 18.4 mph - N/A   Mostly Cloudy
9:50 AM 49 °F 41 °F 66% 29.37 in - WSW 21.9 mph - -  
9:50 AM 50.0 °F 41.0 °F 71% 29.36 in 6.2 mi SW 21.9 mph - N/A   Mostly Cloudy
10:20 AM 48.2 °F 41.0 °F 76% 29.39 in 6.2 mi SW 20.7 mph 32.2 mph N/A   Mostly Cloudy
10:50 AM 50.0 °F 42.8 °F 76% 29.39 in 6.2 mi WSW 20.7 mph 32.2 mph N/A   Mostly Cloudy
11:20 AM 50.0 °F 42.8 °F 76% 29.39 in 6.2 mi WSW 19.6 mph - N/A   Mostly Cloudy
11:50 AM 51.8 °F 42.8 °F 71% 29.39 in 6.2 mi WSW 21.9 mph - N/A   Mostly Cloudy
12:20 PM 51.8 °F 42.8 °F 71% 29.42 in 6.2 mi WSW 19.6 mph - N/A Rain Light Rain Showers
12:50 PM 51 °F 43 °F 67% 29.44 in - WSW 17.3 mph - -  
12:50 PM 51.8 °F 42.8 °F 71% 29.42 in 6.2 mi WSW 18.4 mph 29.9 mph N/A   Mostly Cloudy
1:20 PM 50.0 °F 41.0 °F 71% 29.44 in 6.2 mi WSW 18.4 mph 29.9 mph N/A Rain , Hail Rain Showers
1:50 PM 50.0 °F 42.8 °F 76% 29.44 in 6.2 mi WSW 18.4 mph 29.9 mph N/A   Mostly Cloudy
2:20 PM 53.6 °F 46.4 °F 77% 29.44 in 6.2 mi SW 19.6 mph - N/A   Mostly Cloudy
3:20 PM 51.8 °F 44.6 °F 76% 29.47 in 6.2 mi WSW 21.9 mph - N/A   Scattered Clouds
3:50 PM 54 °F 45 °F 63% 29.50 in - SW 23.0 mph - -  
3:50 PM 53.6 °F 44.6 °F 72% 29.47 in 6.2 mi SW 23.0 mph - N/A   Scattered Clouds
4:20 PM 53.6 °F 44.6 °F 72% 29.50 in 6.2 mi SW 20.7 mph - N/A   Scattered Clouds
4:50 PM 53.6 °F 44.6 °F 72% 29.50 in 6.2 mi WSW 23.0 mph - N/A   Scattered Clouds
5:20 PM 53.6 °F 44.6 °F 72% 29.50 in 6.2 mi SW 20.7 mph - N/A   Scattered Clouds
5:50 PM 51.8 °F 44.6 °F 76% 29.50 in 6.2 mi SW 20.7 mph - N/A   Scattered Clouds
6:20 PM 51.8 °F 42.8 °F 71% 29.53 in 6.2 mi WSW 18.4 mph - N/A   Partly Cloudy
6:50 PM 51 °F 44 °F 68% 29.54 in - WSW 15.0 mph - -  
6:50 PM 51.8 °F 44.6 °F 76% 29.53 in 6.2 mi WSW 15.0 mph - N/A   Partly Cloudy
7:20 PM 50.0 °F 42.8 °F 76% 29.53 in 6.2 mi WSW 15.0 mph - N/A   Partly Cloudy
7:50 PM 50.0 °F 42.8 °F 76% 29.53 in 6.2 mi SW 15.0 mph - N/A   Scattered Clouds
9:50 PM 47 °F 44 °F 83% 29.57 in - WSW 10.4 mph - -